Weather History for Stuart, FL

Change the Weather History Date:

Thursday, May 2, 2013

  Actual Average Record
Temperature  
Mean Temperature 73 °F -  
Max Temperature 77 °F 83 °F 98 °F (1953)
Min Temperature 69 °F 67 °F 55 °F (1950)
Cooling Degree Days 8    
Growing Degree Days 23 (Base 50)    
Moisture  
Dew Point 69 °F    
Average Humidity 87    
Maximum Humidity 94    
Minimum Humidity 83    
Precipitation  
Precipitation 0.07 in - - ()
Sea Level Pressure  
Sea Level Pressure 29.91 in    
Wind  
Wind Speed 9 mph (ESE)    
Max Wind Speed 17 mph    
Max Gust Speed 25 mph    
Visibility 9 miles    
Events Rain , Thunderstorm    
Averages and records for this station are not official NWS values.
T = Trace of Precipitation, MM = Missing Value Source: NWS Daily Summary

Daily Weather History Graph

Daily Weather History Graph

Search for Another Location

Airport:

Trip Planner

Search our weather history database for the weather conditions in past years. The results will help you decide how hot, cold, wet, or windy it might be!

Date:

Astronomy

May. 02, 2013 Rise Set
Actual Time 6:41 AM EDT 7:54 PM EDT
Civil Twilight 6:16 AM EDT 8:19 PM EDT
Nautical Twilight 5:47 AM EDT 8:48 PM EDT
Astronomical Twilight 5:17 AM EDT 9:19 PM EDT
Moon 1:47 AM EDT (5/2) 1:20 PM EDT (5/2)
Length of Visible Light 14h 02m
Length of Day
13h 13m
Waning Gibbous, 48% of the Moon is Illuminated
May 2
Waning Gibbous
May 9
New
May 18
First Quarter
May 25
Full
May 31
Last Quarter

Hourly Weather History & Observations

Time (EDT) Temp. Dew Point Humidity Pressure Visibility Wind Dir Wind Speed Gust Speed Precip Events Conditions
12:15 AM 75.2 °F 71.6 °F 89% 29.99 in 10.0 mi SE 3.5 mph - N/A   Drizzle
12:35 AM 73.4 °F 69.8 °F 88% 29.97 in 7.0 mi East 11.5 mph - 0.05 in Rain Rain
12:55 AM 73.4 °F 69.8 °F 88% 29.97 in 10.0 mi South 3.5 mph - 0.05 in   Overcast
1:15 AM 73.4 °F 69.8 °F 88% 29.96 in 10.0 mi ESE 5.8 mph - N/A   Mostly Cloudy
1:35 AM 73.4 °F 69.8 °F 88% 29.94 in 10.0 mi East 9.2 mph - N/A   Scattered Clouds
1:55 AM 73.4 °F 69.8 °F 88% 29.94 in 10.0 mi East 10.4 mph - N/A   Scattered Clouds
2:35 AM 73.4 °F 69.8 °F 88% 29.94 in 10.0 mi East 8.1 mph - N/A   Mostly Cloudy
2:55 AM 73.4 °F 69.8 °F 88% 29.94 in 10.0 mi SE 11.5 mph - N/A   Mostly Cloudy
3:15 AM 73.4 °F 69.8 °F 88% 29.94 in 10.0 mi SSE 4.6 mph - N/A   Mostly Cloudy
3:35 AM 73.4 °F 69.8 °F 88% 29.94 in 10.0 mi SE 6.9 mph - N/A   Overcast
3:55 AM 73.4 °F 69.8 °F 88% 29.93 in 10.0 mi ESE 9.2 mph - N/A   Scattered Clouds
4:15 AM 73.4 °F 69.8 °F 88% 29.92 in 10.0 mi ESE 9.2 mph - N/A   Clear
4:35 AM 73.4 °F 69.8 °F 88% 29.92 in 10.0 mi ESE 8.1 mph - N/A   Clear
4:55 AM 73.4 °F 69.8 °F 88% 29.92 in 10.0 mi ESE 9.2 mph - N/A   Clear
5:15 AM 73.4 °F 69.8 °F 88% 29.92 in 10.0 mi SE 10.4 mph - N/A   Mostly Cloudy
5:35 AM 73.4 °F 69.8 °F 88% 29.91 in 10.0 mi ESE 12.7 mph - N/A   Mostly Cloudy
5:55 AM 73.4 °F 69.8 °F 88% 29.92 in 10.0 mi SE 10.4 mph - N/A   Scattered Clouds
6:15 AM 73.4 °F 69.8 °F 88% 29.91 in 10.0 mi SE 10.4 mph 17.3 mph N/A   Mostly Cloudy
6:47 AM 75.2 °F 69.8 °F 83% 29.92 in 7.0 mi SE 11.5 mph 17.3 mph N/A Thunderstorm Mostly Cloudy
7:47 AM 75.2 °F 71.6 °F 89% 29.91 in 7.0 mi SE 13.8 mph - N/A Thunderstorm Mostly Cloudy
8:47 AM 77.0 °F 71.6 °F 83% 29.94 in 7.0 mi SE 13.8 mph 19.6 mph N/A Thunderstorm Mostly Cloudy
9:47 AM 77.0 °F 71.6 °F 83% 29.93 in 7.0 mi SSE 13.8 mph 19.6 mph N/A Thunderstorm Overcast
10:15 AM 75.2 °F 69.8 °F 83% 29.94 in 6.0 mi SSE 13.8 mph 19.6 mph N/A Rain , Thunderstorm Thunderstorms and Rain
10:47 AM 71.6 °F 68.0 °F 88% 29.96 in 4.0 mi NE 13.8 mph 18.4 mph N/A Rain , Thunderstorm Thunderstorms and Rain
11:20 AM 71.6 °F 68.0 °F 88% 29.96 in 2.0 mi SSE 6.9 mph - N/A Rain , Thunderstorm Heavy Thunderstorms and Rain
11:47 AM 71.6 °F 68.0 °F 88% 29.94 in 2.0 mi East 6.9 mph - N/A Rain , Thunderstorm Heavy Thunderstorms and Rain
12:47 PM 71.6 °F 69.8 °F 94% 29.96 in 5.0 mi ESE 9.2 mph - N/A Rain , Thunderstorm Light Thunderstorms and Rain
1:47 PM 71.6 °F 69.8 °F 94% 29.94 in 6.0 mi ESE 10.4 mph - N/A Thunderstorm Unknown
2:47 PM 71.6 °F 69.8 °F 94% 29.90 in 7.0 mi SE 13.8 mph 17.3 mph N/A Rain , Thunderstorm Rain
3:47 PM 71.6 °F 68.0 °F 88% 29.90 in 7.0 mi ESE 8.1 mph - N/A Rain Light Rain
4:47 PM 71.6 °F 68.0 °F 88% 29.89 in 7.0 mi SE 13.8 mph 19.6 mph N/A   Mostly Cloudy
5:47 PM 71.6 °F 68.0 °F 88% 29.87 in 7.0 mi SE 9.2 mph - N/A Rain Light Rain
6:47 PM 71.6 °F 68.0 °F 88% 29.85 in 7.0 mi SE 10.4 mph - N/A   Drizzle
8:15 PM 71.6 °F 68.0 °F 88% 29.86 in 10.0 mi SE 12.7 mph 17.3 mph 0.01 in   Light Drizzle
8:35 PM 71.6 °F 66.2 °F 83% 29.87 in 10.0 mi SE 11.5 mph 16.1 mph 0.01 in Rain Light Rain
8:55 PM 69.8 °F 66.2 °F 88% 29.87 in 10.0 mi SE 6.9 mph - 0.02 in Rain Light Rain
9:15 PM 71.6 °F 68.0 °F 88% 29.86 in 10.0 mi East 11.5 mph - N/A Rain Light Rain
9:35 PM 71.6 °F 68.0 °F 88% 29.86 in 10.0 mi East 11.5 mph 17.3 mph N/A   Clear
9:55 PM 73.4 °F 68.0 °F 83% 29.88 in 10.0 mi SE 11.5 mph - N/A   Scattered Clouds
10:15 PM 71.6 °F 68.0 °F 88% 29.88 in 10.0 mi ESE 11.5 mph - N/A   Light Drizzle
10:35 PM 71.6 °F 68.0 °F 88% 29.87 in 10.0 mi East 16.1 mph 24.2 mph N/A   Scattered Clouds
10:55 PM 73.4 °F 68.0 °F 83% 29.87 in 10.0 mi East 17.3 mph 25.3 mph N/A   Scattered Clouds
11:15 PM 73.4 °F 68.0 °F 83% 29.87 in 10.0 mi ESE 13.8 mph 21.9 mph N/A   Clear
11:35 PM 73.4 °F 69.8 °F 88% 29.86 in 10.0 mi ESE 16.1 mph 21.9 mph N/A   Clear
11:55 PM 73.4 °F 68.0 °F 83% 29.86 in 10.0 mi ESE 15.0 mph 19.6 mph N/A   Scattered Clouds